| time (UTC) | temp F | wind direction | speed MPH | gust MPH | rain 1hr in | rain 24hr in | rain mn in | humidity % | barometer mb |
| 20260507120731 | 43 | 347 | 7.0 | 14.0 | 0.00 | 0.00 | 0.00 | 43 | 1014.3 |
| 20260507114731 | 44 | 16 | 4.0 | 6.0 | 0.00 | 0.00 | 0.00 | 39 | 1014.1 |
| 20260507112729 | 42 | 36 | 9.0 | 15.0 | 0.00 | 0.00 | 0.00 | 41 | 1014.1 |
| 20260507110730 | 42 | 46 | 11.0 | 14.0 | 0.00 | 0.00 | 0.00 | 48 | 1014.0 |
| 20260507104729 | 43 | 308 | 6.0 | 9.0 | 0.00 | 0.00 | 0.00 | 39 | 1013.9 |
| 20260507102729 | 42 | 217 | 3.0 | 6.0 | 0.00 | 0.00 | 0.00 | 45 | 1014.0 |
| 20260507100729 | 41 | 333 | 6.0 | 11.0 | 0.00 | 0.00 | 0.00 | 46 | 1013.9 |
| 20260507094730 | 42 | 90 | 5.0 | 10.0 | 0.00 | 0.00 | 0.00 | 50 | 1013.7 |
| 20260507092730 | 40 | 50 | 9.0 | 12.0 | 0.00 | 0.00 | 0.00 | 59 | 1013.8 |
| 20260507090730 | 43 | 327 | 6.0 | 18.0 | 0.00 | 0.00 | 0.00 | 44 | 1013.6 |
| 20260507084729 | 40 | 316 | 5.0 | 9.0 | 0.00 | 0.00 | 0.00 | 51 | 1013.7 |
| 20260507082730 | 40 | 333 | 2.0 | 6.0 | 0.00 | 0.00 | 0.00 | 54 | 1013.7 |
| 20260507080729 | 42 | 37 | 6.0 | 9.0 | 0.00 | 0.00 | 0.00 | 52 | 1013.6 |
| 20260507074730 | 39 | 316 | 3.0 | 5.0 | 0.00 | 0.00 | 0.00 | 60 | 1013.7 |
| 20260507072729 | 39 | 101 | 3.0 | 5.0 | 0.00 | 0.00 | 0.00 | 60 | 1013.6 |
| 20260507070729 | 40 | 93 | 2.0 | 7.0 | 0.00 | 0.00 | 0.00 | 62 | 1013.4 |
| 20260507064729 | 38 | 346 | 2.0 | 3.0 | 0.00 | 0.00 | 0.00 | 70 | 1013.5 |
| 20260507062729 | 38 | 17 | 2.0 | 3.0 | 0.00 | 0.00 | 0.00 | 71 | 1013.5 |
| 20260507060729 | 37 | 354 | 4.0 | 7.0 | 0.00 | 0.00 | 0.00 | 72 | 1013.3 |
| 20260507054729 | 37 | 54 | 4.0 | 7.0 | 0.00 | 0.00 | 0.00 | 70 | 1013.2 |
| 20260507052729 | 37 | 169 | 2.0 | 3.0 | 0.00 | 0.00 | 0.00 | 72 | 1013.1 |
| 20260507050728 | 38 | 160 | 1.0 | 2.0 | 0.00 | 0.00 | 0.00 | 75 | 1013.0 |
| 20260507044729 | 35 | 227 | 1.0 | 2.0 | 0.00 | 0.00 | 0.00 | 84 | 1013.1 |
| 20260507042728 | 34 | 260 | 1.0 | 2.0 | 0.00 | 0.00 | 0.00 | 88 | 1013.0 |
| 20260507040730 | 33 | 230 | 1.0 | 2.0 | 0.00 | 0.00 | 0.00 | 92 | 1012.9 |
| 20260507034729 | 33 | 246 | 1.0 | 2.0 | 0.00 | 0.00 | 0.00 | 93 | 1012.8 |
| 20260507032729 | 33 | 166 | 1.0 | 3.0 | 0.00 | 0.00 | 0.00 | 93 | 1012.7 |
| 20260507030730 | 33 | 226 | 2.0 | 3.0 | 0.00 | 0.00 | 0.00 | 93 | 1012.6 |
| 20260507024728 | 32 | 286 | 3.0 | 4.0 | 0.00 | 0.00 | 0.00 | 94 | 1012.6 |
| 20260507022729 | 32 | 332 | 2.0 | 4.0 | 0.00 | 0.00 | 0.00 | 95 | 1012.4 |
| 20260507020729 | 32 | 142 | 1.0 | 2.0 | 0.00 | 0.00 | 0.00 | 95 | 1012.3 |
| 20260507014729 | 32 | 212 | 3.0 | 3.0 | 0.00 | 0.00 | 0.00 | 94 | 1012.2 |
| 20260507012728 | 32 | 253 | 2.0 | 2.0 | 0.00 | 0.00 | 0.00 | 94 | 1012.2 |
| 20260507010728 | 32 | 4 | 1.0 | 2.0 | 0.00 | 0.00 | 0.00 | 94 | 1012.1 |
| 20260507004728 | 32 | 5 | 2.0 | 3.0 | 0.00 | 0.00 | 0.00 | 94 | 1012.0 |
| 20260507002728 | 32 | 34 | 3.0 | 4.0 | 0.00 | 0.00 | 0.00 | 94 | 1011.9 |
| 20260507000728 | 33 | 57 | 2.0 | 3.0 | 0.00 | 0.00 | 0.00 | 93 | 1011.7 |
| 20260506234729 | 33 | 33 | 2.0 | 3.0 | 0.00 | 0.00 | 0.00 | 93 | 1011.7 |
| 20260506232728 | 33 | 14 | 2.0 | 3.0 | 0.00 | 0.00 | 0.00 | 93 | 1011.6 |
| 20260506230730 | 33 | 25 | 4.0 | 5.0 | 0.00 | 0.00 | 0.00 | 92 | 1011.4 |
| 20260506224727 | 33 | 49 | 4.0 | 5.0 | 0.00 | 0.00 | 0.00 | 91 | 1011.3 |
| 20260506222728 | 33 | 353 | 2.0 | 3.0 | 0.00 | 0.00 | 0.00 | 89 | 1011.3 |
| 20260506220728 | 34 | 235 | 2.0 | 3.0 | 0.00 | 0.00 | 0.00 | 85 | 1011.2 |
| 20260506212728 | 35 | 304 | 2.0 | 3.0 | 0.00 | 0.00 | 0.00 | 82 | 1010.9 |
| 20260506210728 | 34 | 308 | 3.0 | 4.0 | 0.00 | 0.00 | 0.00 | 82 | 1010.8 |
| 20260506204727 | 35 | 324 | 6.0 | 12.0 | 0.00 | 0.00 | 0.00 | 78 | 1010.8 |
| 20260506202728 | 35 | 265 | 4.0 | 6.0 | 0.00 | 0.00 | 0.00 | 72 | 1010.6 |
| 20260506200728 | 35 | 242 | 2.0 | 3.0 | 0.00 | 0.00 | 0.00 | 75 | 1010.3 |
| 20260506194727 | 36 | 240 | 4.0 | 5.0 | 0.00 | 0.00 | 0.00 | 67 | 1010.1 |
| 20260506192727 | 35 | 242 | 4.0 | 6.0 | 0.00 | 0.00 | 0.00 | 69 | 1010.1 |
| 20260506190727 | 35 | 46 | 2.0 | 3.0 | 0.00 | 0.00 | 0.00 | 76 | 1009.9 |
| 20260506184727 | 37 | 25 | 3.0 | 4.0 | 0.00 | 0.00 | 0.00 | 65 | 1009.7 |
| 20260506180727 | 38 | 134 | 3.0 | 4.0 | 0.00 | 0.00 | 0.00 | 62 | 1009.4 |
| 20260506174727 | 39 | 98 | 4.0 | 6.0 | 0.00 | 0.00 | 0.00 | 58 | 1009.2 |
| 20260506172726 | 40 | 115 | 4.0 | 6.0 | 0.00 | 0.00 | 0.00 | 58 | 1009.1 |
| 20260506170727 | 40 | 45 | 5.0 | 8.0 | 0.00 | 0.00 | 0.00 | 58 | 1009.0 |
| 20260506164726 | 40 | 41 | 7.0 | 10.0 | 0.00 | 0.00 | 0.00 | 58 | 1008.9 |
| 20260506162727 | 40 | 31 | 6.0 | 9.0 | 0.00 | 0.00 | 0.00 | 53 | 1008.8 |
| 20260506160726 | 40 | 17 | 11.0 | 15.0 | 0.00 | 0.00 | 0.00 | 49 | 1008.7 |
| 20260506154727 | 41 | 306 | 6.0 | 9.0 | 0.00 | 0.00 | 0.00 | 46 | 1008.5 |
| 20260506152727 | 41 | 268 | 7.0 | 9.0 | 0.00 | 0.00 | 0.00 | 47 | 1008.4 |
| 20260506150726 | 41 | 222 | 5.0 | 7.0 | 0.00 | 0.00 | 0.00 | 47 | 1008.3 |
| 20260506144725 | 41 | 231 | 4.0 | 7.0 | 0.00 | 0.00 | 0.00 | 48 | 1008.3 |
| 20260506142726 | 40 | 273 | 3.0 | 7.0 | 0.00 | 0.00 | 0.00 | 57 | 1008.3 |
| 20260506140726 | 39 | 314 | 6.0 | 11.0 | 0.00 | 0.00 | 0.00 | 62 | 1008.3 |
| 20260506134726 | 39 | 308 | 8.0 | 11.0 | 0.00 | 0.00 | 0.00 | 61 | 1008.3 |
| 20260506132726 | 40 | 307 | 5.0 | 10.0 | 0.00 | 0.00 | 0.00 | 52 | 1008.1 |
| 20260506124725 | 40 | 3 | 2.0 | 6.0 | 0.00 | 0.00 | 0.00 | 53 | 1007.8 |
| 20260506122725 | 39 | 330 | 6.0 | 10.0 | 0.00 | 0.00 | 0.00 | 59 | 1007.8 |